Regional Weather Roundup
Issued by NWS

Home | Current Version | Previous Version | Graphics & Text | Print | Product List | Glossary On
Versions: 1 2 3 4 5 6 7 8 9 10 11 12 13 14 15 16 17 18 19 20 21 22 23 24 25 26 27 28 29 30 31 32 33 34 35 36 37 38 39 40 41 42 43 44 45 46 47 48 49 50
000
ASUS43 KDTX 291810
RWRMI
MICHIGAN HOURLY REGIONAL WEATHER ROUNDUP
NATIONAL WEATHER SERVICE DETROIT/PONTIAC MI
200 PM EDT THU SEP 29 2016

NOTE: "FAIR" INDICATES FEW OR NO CLOUDS BELOW 12,000 FEET WITH NO
SIGNIFICANT WEATHER AND/OR OBSTRUCTION TO VISIBILITY.

MIZ047>049-052>055-059>063-066>070-074>076-081>083-291900-
SOUTHEAST LOWER MICHIGAN

CITY           SKY/WX    TMP DP  RH WIND       PRES   REMARKS
ADRIAN         PTSUNNY   65  56  72 NE15      30.16F
6HR MIN TEMP:  59; 6HR MAX TEMP:  66; 6HR PCP: TRACE;

ALMA           LGT RAIN  59  59  99 NE12G18   30.27S
ANN ARBOR      LGT RAIN  61  61 100 N8        30.17F FOG
BAD AXE        CLOUDY    60  54  81 NE9       30.29S
6HR MIN TEMP:  60; 6HR MAX TEMP:  62;

CARO           LGT RAIN  59  57  92 NE6       30.26S
DETROIT CITY   CLOUDY    63  61  93 NE10      30.18S
6HR MIN TEMP:  57; 6HR MAX TEMP:  63; 6HR PCP:  2.25;

DETROIT        HVY RAIN  61  60  97 NE9       30.18S FOG
6HR MIN TEMP:  59; 6HR MAX TEMP:  62; 6HR PCP:  0.78;

FLINT          CLOUDY    61  58  90 NE13G20   30.23S
6HR MIN TEMP:  59; 6HR MAX TEMP:  62; 6HR PCP:  0.50;

GROSSE ILE     RAIN      60  59  96 N7        30.16S
HILLSDALE      PTSUNNY   66  55  68 NE13      30.15S
HOWELL         CLOUDY    60  58  96 NE12      30.21R
6HR MIN TEMP:  58; 6HR MAX TEMP:  60;


CITY           SKY/WX    TMP DP  RH WIND       PRES   REMARKS
JACKSON        CLOUDY    62  60  93 E12       30.17F
6HR MIN TEMP:  59; 6HR MAX TEMP:  63; 6HR PCP:  0.08;

LAMBERTVILLE   LGT RAIN  65  57  74 NE7       30.15S
6HR MIN TEMP:  59; 6HR MAX TEMP:  66;

LANSING        LGT RAIN  60  57  89 NE10      30.22F
6HR MIN TEMP:  59; 6HR MAX TEMP:  61; 6HR PCP:  0.91;

LAPEER         CLOUDY    61  58  89 NE8G17    30.23S
6HR MIN TEMP:  59; 6HR MAX TEMP:  62; 6HR PCP:  0.19;

MASON          CLOUDY    60  58  95 NE12G20   30.20F
MONROE         LGT RAIN  60  58  95 NW8       30.14F
6HR MIN TEMP:  59; 6HR MAX TEMP:  64; 6HR PCP:  0.04;

MT. CLEMENS    PTSUNNY   65  59  83 NE14      30.17F
6HR MIN TEMP:  60; 6HR MAX TEMP:  66; 6HR PCP: TRACE;

PONTIAC        CLOUDY    61  58  90 NE9       30.20R
6HR MIN TEMP:  59; 6HR MAX TEMP:  62; 6HR PCP:  0.27;

PORT HURON     CLOUDY    63  59  88 NE9       30.22S
TRI CITIES     LGT RAIN  61  56  83 NE20G29   30.29R
6HR MIN TEMP:  61; 6HR MAX TEMP:  64; 6HR PCP: TRACE;

MIDLAND        CLOUDY    62  54  75 NE14G21   30.28S
6HR MIN TEMP:  62; 6HR MAX TEMP:  63;

TROY           CLOUDY    64  60  88 NE9       30.20S
SAGINAW HB     LGT RAIN  61  55  82 NE10      30.26S
$$
MIZ043>046-050>051-056>058-064>065-071>073-077>080-291900-
SOUTHWEST LOWER MICHIGAN

CITY           SKY/WX    TMP DP  RH WIND       PRES   REMARKS
BATTLE CREEK   CLOUDY    64  59  83 E16G24    30.19R
6HR MIN TEMP:  59; 6HR MAX TEMP:  65; 6HR PCP:  0.82;

BENTON HARBOR  CLOUDY    65  58  78 NE9       30.16S
6HR MIN TEMP:  57; 6HR MAX TEMP:  65;

BIG RAPIDS     CLOUDY    67  53  60 E8G17     30.27S
6HR MIN TEMP:  58; 6HR MAX TEMP:  68;

COLDWATER      PTSUNNY   67  56  70 E14       30.14S
6HR MIN TEMP:  58; 6HR MAX TEMP:  67;

FREMONT        CLOUDY    63  55  75 NE10      30.27S
HOLLAND        CLOUDY    63  58  83 NE13G23   30.21S
6HR MIN TEMP:  60; 6HR MAX TEMP:  63; 6HR PCP:  0.06;

GRAND RAPIDS   CLOUDY    62  57  83 NE21G28   30.22S
6HR MIN TEMP:  59; 6HR MAX TEMP:  63; 6HR PCP:  0.24;

IONIA          LGT RAIN  58  56  92 NE13G22   30.22S
6HR MIN TEMP:  58; 6HR MAX TEMP:  60; 6HR PCP:  0.37;

KALAMAZOO      PTSUNNY   66  57  72 VRB6      30.17F
6HR MIN TEMP:  59; 6HR MAX TEMP:  67; 6HR PCP:  0.15;

LUDINGTON      CLOUDY    71  55  58 NE9G18    30.27F
6HR MIN TEMP:  55; 6HR MAX TEMP:  71;

MARSHALL       CLOUDY    64  60  86 NE7       30.17R
6HR MIN TEMP:  59; 6HR MAX TEMP:  65; 6HR PCP:  0.15;

MOUNT PLEASANT CLOUDY    63  55  76 NE9       30.28R
6HR MIN TEMP:  59; 6HR MAX TEMP:  64;

MUSKEGON       CLOUDY    65  58  78 NE18G28   30.23F
6HR MIN TEMP:  58; 6HR MAX TEMP:  66; 6HR PCP: TRACE;

SOUTH HAVEN    CLOUDY    64  60  88 E10G21    30.18R
$$
MIZ016>042-291900-
NORTHERN LOWER MICHIGAN

CITY           SKY/WX    TMP DP  RH WIND       PRES   REMARKS
ALPENA         CLOUDY    63  52  67 NE10G21   30.38S
6HR MIN TEMP:  59; 6HR MAX TEMP:  65;

BEAVER ISLAND  FAIR      64  57  78 E12       30.41S
6HR MIN TEMP:  57; 6HR MAX TEMP:  64;

BELLAIRE       FAIR      69  51  51 NE12G20   30.34F
6HR MIN TEMP:  56; 6HR MAX TEMP:  70;

CADILLAC       FAIR      69  50  51 NE16G25   30.30S
CHARLEVOIX     FAIR      65  54  67 NE15G22   30.40F
FRANKFORT      FAIR      70  54  56 NE10G18   30.33S
GAYLORD        FAIR      65  50  58 NE15G29   30.36S
6HR MIN TEMP:  56; 6HR MAX TEMP:  67;

GRAYLING       FAIR      68  52  57 NE21G26   30.34F
HARBOR SPRINGS FAIR      65  54  69 NE13      30.38F HAZE
HOUGHTON LAKE  FAIR      65  51  60 NE17G25   30.33R
6HR MIN TEMP:  57; 6HR MAX TEMP:  68;

MANISTEE       FAIR      69  55  60 NE15G21   30.29F
OSCODA         CLOUDY    62  53  72 NE16G22   30.33S
6HR MIN TEMP:  60; 6HR MAX TEMP:  65;

PELLSTON       FAIR      65  54  67 NE14      30.40F
6HR MIN TEMP:  55; 6HR MAX TEMP:  65;

ROGERS CITY    FAIR      64  57  77 NE9       30.40F
TRAVERSE CITY  FAIR      70  54  56 NE13      30.32F
6HR MIN TEMP:  57; 6HR MAX TEMP:  70;

$$
MIZ007>008-015-291900-
EASTERN UPPER MICHIGAN

CITY           SKY/WX    TMP DP  RH WIND       PRES   REMARKS
KINROSS        FAIR      68  53  58 E13       30.42F
6HR MIN TEMP:  51; 6HR MAX TEMP:  68;

MACKINAC ISLAN FAIR      62  55  79 NE7       30.41F
NEWBERRY       FAIR      69  49  48 NE8       30.41S
6HR MIN TEMP:  50; 6HR MAX TEMP:  69;

S. S. MARIE    FAIR      72  49  44 E8        30.41F
6HR MIN TEMP:  53; 6HR MAX TEMP:  72;

MUNISING         N/A     63  58  83 N13       30.44F
6HR MIN TEMP:  50; 6HR MAX TEMP:  65;

$$
MIZ004>006-011>014-085-291900-
CENTRAL UPPER MICHIGAN

CITY           SKY/WX    TMP DP  RH WIND       PRES   REMARKS
MANISTIQUE     FAIR      72  48  42 E8        30.40S
6HR MIN TEMP:  51; 6HR MAX TEMP:  72;

ESCANABA       FAIR      71  56  58 NE12      30.39F
6HR MIN TEMP:  55; 6HR MAX TEMP:  71;

MENOMINEE      FAIR      66  57  72 E17G23    30.40R
6HR MIN TEMP:  52; 6HR MAX TEMP:  69;

SAWYER-GWINN   MOSUNNY   63  54  72 N14G20    30.46F
$$
MIZ001>003-009>011-084-291900-
WESTERN UPPER MICHIGAN

CITY           SKY/WX    TMP DP  RH WIND       PRES   REMARKS
IRON MOUNTAIN  FAIR      70  49  47 VRB7G16   30.42F
6HR MIN TEMP:  48; 6HR MAX TEMP:  70;

HOUGHTON       PTSUNNY   61  52  72 NE3       30.49F
6HR MIN TEMP:  54; 6HR MAX TEMP:  61;

COPPER HARBOR    N/A     56  54  93 NE7       30.50S
6HR MIN TEMP:  56; 6HR MAX TEMP:  58;

IRONWOOD       PTSUNNY   61  53  75 VRB6      30.50
$$

ABBREVIATIONS USED IN REMARKS
   TC - TEMPERATURE IN CELSIUS
  WCI - WIND CHILL INDEX
   HX - HEAT INDEX
  VSB - VISIBILITY




USA.gov is the U.S. government's official web portal to all federal, state and local government web resources and services.